FW2795 Weather Reports


Display with metric or nautical units.
time (UTC)temp
F
wind
direction
speed
MPH
gust
MPH
rain 1hr
in
rain 24hr
in
rain mn
in
humidity
%
barometer
mb
20260507175607 60 222 2.0 3.0 0.00 0.00 0.00 57 1015.4
20260507175057 60 204 2.0 4.0 0.00 0.00 0.00 57 1015.5
20260507174556 60 196 4.0 6.0 0.00 0.00 0.00 56 1015.4
20260507173556 60 207 2.0 3.0 0.00 0.00 0.00 57 1015.3
20260507173055 60 199 1.0 2.0 0.00 0.00 0.00 57 1015.2
20260507172555 60 194 2.0 4.0 0.00 0.00 0.00 57 1015.2
20260507171555 60 189 3.0 4.0 0.00 0.00 0.00 56 1015.4
20260507171054 60 171 2.0 4.0 0.00 0.00 0.00 55 1015.3
20260507170554 60 191 2.0 2.0 0.00 0.00 0.00 54 1015.4
20260507165554 60 190 2.0 4.0 0.00 0.00 0.00 53 1015.2
20260507165108 60 199 2.0 4.0 0.00 0.00 0.00 53 1015.1
20260507164557 60 238 2.0 3.0 0.00 0.00 0.00 53 1015.3
20260507163557 61 186 2.0 3.0 0.00 0.00 0.00 50 1015.1
20260507163056 61 226 2.0 5.0 0.00 0.00 0.00 44 1015.2
20260507162556 61 182 2.0 3.0 0.00 0.00 0.00 39 1015.2
20260507161556 62 186 1.0 2.0 0.00 0.00 0.00 39 1015.2
20260507161110 62 190 1.0 2.0 0.00 0.00 0.00 39 1015.2
20260507160600 62 199 1.0 2.0 0.00 0.00 0.00 39 1015.2
20260507155559 63 173 2.0 4.0 0.00 0.00 0.00 37 1015.3
20260507155059 63 17 1.0 2.0 0.00 0.00 0.00 36 1015.2
20260507154559 63 35 2.0 2.0 0.00 0.00 0.00 37 1015.2
20260507153558 64 232 1.0 2.0 0.00 0.00 0.00 36 1015.2
20260507153058 64 243 1.0 4.0 0.00 0.00 0.00 34 1015.2
20260507152547 64 261 1.0 2.0 0.00 0.00 0.00 33 1015.3
20260507151602 64 263 2.0 4.0 0.00 0.00 0.00 32 1015.3
20260507151051 65 247 2.0 3.0 0.00 0.00 0.00 33 1015.5
20260507150551 66 348 2.0 2.0 0.00 0.00 0.00 33 1015.4
20260507145551 67 154 2.0 2.0 0.00 0.00 0.00 31 1015.3
20260507145050 68 232 2.0 4.0 0.00 0.00 0.00 28 1015.5
20260507144550 69 339 1.0 2.0 0.00 0.00 0.00 29 1015.3
20260507143604 68 207 0.0 2.0 0.00 0.00 0.00 31 1015.4
20260507143048 69 209 2.0 3.0 0.00 0.00 0.00 26 1015.4
20260507142548 71 163 2.0 4.0 0.00 0.00 0.00 26 1015.4
20260507141602 70 101 2.0 3.0 0.00 0.00 0.00 27 1015.5
20260507141047 68 186 1.0 2.0 0.00 0.00 0.00 31 1015.5
20260507140546 67 194 1.0 4.0 0.00 0.00 0.00 31 1015.7
20260507135601 68 197 2.0 3.0 0.00 0.00 0.00 29 1015.7
20260507135050 68 61 3.0 4.0 0.00 0.00 0.00 30 1015.6
20260507134550 67 233 0.0 1.0 0.00 0.00 0.00 31 1015.6
20260507133550 66 233 1.0 2.0 0.00 0.00 0.00 31 1015.7
20260507133105 66 236 2.0 4.0 0.00 0.00 0.00 31 1015.8
20260507132609 66 259 1.0 4.0 0.00 0.00 0.00 31 1015.8
20260507131559 65 251 2.0 4.0 0.00 0.00 0.00 31 1015.8
20260507131059 67 273 2.0 4.0 0.00 0.00 0.00 28 1016.0
20260507130548 69 299 2.0 4.0 0.00 0.00 0.00 27 1015.7
20260507125603 68 315 2.0 3.0 0.00 0.00 0.00 30 1015.7
20260507125052 68 311 2.0 3.0 0.00 0.00 0.00 30 1015.8
20260507124552 67 309 2.0 4.0 0.00 0.00 0.00 32 1016.0
20260507123551 66 246 1.0 2.0 0.00 0.00 0.00 32 1015.9
20260507123050 66 243 1.0 2.0 0.00 0.00 0.00 33 1015.6
20260507122550 65 253 1.0 2.0 0.00 0.00 0.00 35 1015.8
20260507121605 64 234 2.0 4.0 0.00 0.00 0.00 34 1015.7
20260507121049 64 244 2.0 3.0 0.00 0.00 0.00 33 1015.7
20260507120548 64 262 2.0 3.0 0.00 0.00 0.00 33 1015.9
20260507115603 66 235 1.0 3.0 0.00 0.00 0.00 26 1015.9
20260507114548 70 310 2.0 4.0 0.00 0.00 0.00 22 1015.9
20260507113602 69 310 1.0 2.0 0.00 0.00 0.00 28 1016.2
20260507112602 69 319 2.0 4.0 0.00 0.00 0.00 28 1015.9
20260507111601 70 324 3.0 5.0 0.00 0.00 0.00 29 1016.0
20260507111101 68 326 1.0 2.0 0.00 0.00 0.00 31 1015.9
20260507110600 66 310 1.0 2.0 0.00 0.00 0.00 32 1016.3
20260507105605 65 307 2.0 3.0 0.00 0.00 0.00 33 1016.2
20260507105049 65 283 1.0 2.0 0.00 0.00 0.00 34 1016.5
20260507104549 65 287 2.0 4.0 0.00 0.00 0.00 33 1016.2
20260507104003 65 344 1.0 2.0 0.00 0.00 0.00 36 1016.4
20260507102948 64 338 1.0 2.0 0.00 0.00 0.00 38 1016.5
20260507102003 64 32 2.0 4.0 0.00 0.00 0.00 45 1016.6
20260507101447 64 97 2.0 3.0 0.00 0.00 0.00 46 1016.5
20260507101002 65 132 2.0 3.0 0.00 0.00 0.00 46 1016.5
20260507095951 62 167 2.0 4.0 0.00 0.00 0.00 50 1016.6
20260507094951 61 201 1.0 2.0 0.00 0.00 0.00 53 1016.5
20260507093951 63 222 1.0 2.0 0.00 0.00 0.00 53 1016.6
20260507093506 62 213 2.0 4.0 0.00 0.00 0.00 53 1016.8
20260507092955 62 203 2.0 4.0 0.00 0.00 0.00 58 1016.2
20260507091955 60 184 2.0 2.0 0.00 0.00 0.00 61 1016.5
20260507090954 58 186 1.0 3.0 0.00 0.00 0.00 64 1016.7
20260507085954 60 157 2.0 4.0 0.00 0.00 0.00 61 1016.7
20260507085454 60 85 1.0 2.0 0.00 0.00 0.00 61 1016.7
20260507084953 60 107 1.0 2.0 0.00 0.00 0.00 63 1016.7
20260507083952 60 98 0.0 1.0 0.00 0.00 0.00 61 1016.6
20260507082952 60 143 0.0 2.0 0.00 0.00 0.00 63 1016.8
20260507081952 60 190 2.0 2.0 0.00 0.00 0.00 64 1016.7
20260507081506 61 90 2.0 3.0 0.00 0.00 0.00 67 1016.7
20260507080956 60 270 0.0 2.0 0.00 0.00 0.00 72 1016.7
20260507075955 58 225 0.0 1.0 0.00 0.00 0.00 86 1016.7
20260507075509 56 225 0.0 1.0 0.00 0.00 0.00 91 1016.7
20260507074958 53 225 0.0 2.0 0.00 0.00 0.00 91 1016.5
20260507073958 50 225 0.0 1.0 0.00 0.00 0.00 93 1016.6
20260507073457 49 225 1.0 2.0 0.00 0.00 0.00 95 1016.6
20260507072957 49 225 0.0 1.0 0.00 0.00 0.00 95 1016.7
20260507072457 49 225 0.0 1.0 0.00 0.00 0.00 96 1016.6
20260507071856 48 225 1.0 2.0 0.00 0.00 0.00 97 1016.5
20260507071401 48 225 1.0 2.0 0.00 0.00 0.00 98 1016.6
20260507070400 47 360 0.0 1.0 0.00 0.00 0.00 98 1016.5
20260507065400 46 304 0.0 1.0 0.00 0.00 0.00 98 1016.5
20260507064400 46 304 1.0 2.0 0.00 0.00 0.00 97 1016.6
20260507063859 44 270 0.0 2.0 0.00 0.00 0.00 98 1016.6
20260507063359 43 270 2.0 2.0 0.00 0.00 0.00 98 1016.6
20260507062358 43 180 0.0 0.0 0.00 0.00 0.00 98 1016.4
20260507061858 43 180 0.0 2.0 0.00 0.00 0.00 98 1016.4
20260507061358 42 180 0.0 2.0 0.00 0.00 0.00 99 1016.2
20260507060357 41 315 0.0 1.0 0.00 0.00 0.00 99 1016.6
20260507055857 41 315 0.0 2.0 0.00 0.00 0.00 99 1016.4
20260507055356 41 298 0.0 1.0 0.00 0.00 0.00 99 1016.5
20260507054356 40 298 0.0 2.0 0.00 0.00 0.00 99 1016.3
20260507053855 41 298 1.0 3.0 0.00 0.00 0.00 99 1016.2
20260507053355 41 283 0.0 2.0 0.00 0.00 0.00 99 1016.2
20260507052354 40 276 0.0 1.0 0.00 0.00 0.00 99 1016.1
20260507051854 40 276 0.0 1.0 0.00 0.00 0.00 99 1016.3
20260507051353 40 276 0.0 1.0 0.00 0.00 0.00 98 1016.1
20260507050408 39 225 1.0 2.0 0.00 0.00 0.00 98 1016.0
20260507045858 39 180 0.0 2.0 0.00 0.00 0.00 98 1016.0
20260507045357 39 180 0.0 1.0 0.00 0.00 0.00 99 1016.0
20260507044356 39 360 0.0 1.0 0.00 0.00 0.00 98 1016.1
20260507043856 39 343 0.0 1.0 0.00 0.00 0.00 98 1015.9
20260507043411 39 343 0.0 2.0 0.00 0.00 0.00 98 1015.9
20260507042401 39 343 1.0 2.0 0.00 0.00 0.00 97 1015.8
20260507041900 39 315 0.0 1.0 0.00 0.00 0.00 97 1016.0
20260507041359 39 315 1.0 2.0 0.00 0.00 0.00 97 1015.9
20260507040359 38 180 0.0 1.0 0.00 0.00 0.00 97 1016.1
20260507035858 38 180 0.0 1.0 0.00 0.00 0.00 97 1016.0
20260507035357 38 180 0.0 2.0 0.00 0.00 0.00 97 1015.9
20260507034357 38 180 0.0 1.0 0.00 0.00 0.00 96 1015.8
20260507033856 39 180 0.0 0.0 0.00 0.00 0.00 96 1015.9
20260507033355 39 180 0.0 1.0 0.00 0.00 0.00 96 1015.9
20260507032354 39 180 0.0 1.0 0.00 0.00 0.00 96 1016.0
20260507031854 39 180 0.0 2.0 0.00 0.00 0.00 96 1015.9
20260507031353 39 180 0.0 0.0 0.00 0.00 0.00 96 1015.9
20260507030353 39 180 0.0 0.0 0.00 0.00 0.00 95 1015.7
20260507025853 39 180 0.0 1.0 0.00 0.00 0.00 95 1016.0
20260507025352 40 180 0.0 1.0 0.00 0.00 0.00 94 1015.8
20260507024352 40 180 0.0 2.0 0.00 0.00 0.00 94 1015.8
20260507023906 40 180 0.0 1.0 0.00 0.00 0.00 94 1015.8
20260507023356 40 180 0.0 1.0 0.00 0.00 0.00 94 1015.9
20260507022356 40 180 0.0 0.0 0.00 0.00 0.00 94 1015.8
20260507021910 40 180 0.0 2.0 0.00 0.00 0.00 94 1015.9
20260507021400 40 360 0.0 0.0 0.00 0.00 0.00 94 1015.7
20260507020359 40 343 0.0 0.0 0.00 0.00 0.00 93 1015.9
20260507015858 42 343 0.0 1.0 0.00 0.00 0.00 92 1015.9
20260507015358 42 343 0.0 1.0 0.00 0.00 0.00 92 1016.0
20260507014358 42 315 0.0 1.0 0.00 0.00 0.00 91 1015.8
20260507013857 42 315 1.0 2.0 0.00 0.00 0.00 91 1015.7
20260507013357 42 180 0.0 0.0 0.00 0.00 0.00 91 1015.7
20260507012356 42 180 0.0 0.0 0.00 0.00 0.00 91 1015.8
20260507011856 42 180 0.0 1.0 0.00 0.00 0.00 91 1015.9
20260507011356 42 180 0.0 1.0 0.00 0.00 0.00 91 1015.9
20260507010355 42 270 0.0 1.0 0.00 0.00 0.00 91 1015.8
20260507005854 43 270 0.0 0.0 0.00 0.00 0.00 91 1015.7
20260507005409 43 270 0.0 0.0 0.00 0.00 0.00 90 1015.7
20260507004359 43 270 0.0 0.0 0.00 0.00 0.00 89 1015.7
20260507003858 43 270 1.0 2.0 0.00 0.00 0.00 89 1015.8
20260507003358 43 180 0.0 0.0 0.00 0.00 0.00 89 1016.0
20260507002358 43 180 0.0 0.0 0.00 0.00 0.00 88 1015.9
20260507001858 43 270 0.0 0.0 0.00 0.00 0.00 88 1015.9
20260507001358 43 250 0.0 0.0 0.00 0.00 0.00 88 1015.8
20260507000413 44 217 0.0 0.0 0.00 0.00 0.00 88 1015.9
20260506235902 44 216 0.0 1.0 0.00 0.00 0.00 88 1016.0
20260506235351 45 216 1.0 2.0 0.00 0.00 0.00 87 1015.9
20260506234406 46 167 2.0 2.0 0.00 0.00 0.00 86 1015.5
20260506233356 46 45 1.0 2.0 0.00 0.00 0.00 85 1015.6
20260506232355 46 45 0.0 2.0 0.00 0.00 0.00 85 1015.6
20260506231855 46 45 0.0 1.0 0.00 0.00 0.00 85 1015.5
20260506231354 46 45 0.0 2.0 0.00 0.00 0.00 84 1015.9
20260506230409 46 45 2.0 2.0 0.00 0.00 0.00 84 1015.6
20260506225859 47 180 0.0 0.0 0.00 0.00 0.00 83 1015.7
20260506225348 47 45 0.0 0.0 0.00 0.00 0.00 83 1015.8
20260506224403 47 87 0.0 1.0 0.00 0.00 0.00 82 1015.7
20260506223902 47 75 0.0 1.0 0.00 0.00 0.00 82 1015.6
20260506223402 47 86 0.0 0.0 0.00 0.00 0.00 82 1015.9
20260506222402 48 79 1.0 2.0 0.00 0.00 0.00 81 1015.7
20260506221902 48 72 2.0 4.0 0.00 0.00 0.00 80 1015.7
20260506221401 48 64 2.0 2.0 0.00 0.00 0.00 79 1015.7
20260506220401 48 51 2.0 4.0 0.00 0.00 0.00 76 1015.4
20260506215900 49 53 2.0 3.0 0.00 0.00 0.00 76 1015.6
20260506215400 49 56 2.0 4.0 0.00 0.00 0.00 75 1015.4
20260506214404 49 45 2.0 4.0 0.00 0.00 0.00 74 1015.3
20260506213849 49 45 2.0 4.0 0.00 0.00 0.00 74 1015.4
20260506213348 50 45 3.0 4.0 0.00 0.00 0.00 73 1015.6
20260506212803 50 45 2.0 2.0 0.00 0.00 0.00 72 1015.5
20260506212248 50 45 3.0 6.0 0.00 0.00 0.00 72 1015.5
20260506211802 50 41 0.0 2.0 0.00 0.00 0.00 70 1015.4
20260506210802 51 43 1.0 2.0 0.00 0.00 0.00 69 1015.3
20260506210301 51 49 2.0 2.0 0.00 0.00 0.00 68 1015.2
20260506205801 51 52 2.0 4.0 0.00 0.00 0.00 67 1015.1
20260506205300 51 57 1.0 3.0 0.00 0.00 0.00 67 1015.1
20260506204700 51 60 1.0 2.0 0.00 0.00 0.00 65 1015.1
20260506204159 52 74 2.0 4.0 0.00 0.00 0.00 64 1015.3
20260506203214 52 33 2.0 3.0 0.00 0.00 0.00 60 1015.0
20260506202649 52 33 2.0 3.0 0.00 0.00 0.00 59 1015.0
20260506202148 53 26 2.0 4.0 0.00 0.00 0.00 59 1014.9
20260506201203 53 71 1.0 3.0 0.00 0.00 0.00 57 1014.8
20260506200548 53 78 1.0 2.0 0.00 0.00 0.00 57 1015.1
20260506195602 53 72 0.0 1.0 0.00 0.00 0.00 57 1014.9
20260506195102 54 74 1.0 3.0 0.00 0.00 0.00 55 1014.9
20260506194602 54 78 4.0 6.0 0.00 0.00 0.00 55 1014.8
20260506193801 54 41 0.0 1.0 0.00 0.00 0.00 55 1014.9
20260506193201 54 41 2.0 4.0 0.00 0.00 0.00 55 1014.6
20260506192001 54 42 2.0 4.0 0.00 0.00 0.00 54 1014.7
20260506191500 54 42 2.0 3.0 0.00 0.00 0.00 54 1014.5
20260506190805 54 61 2.0 2.0 0.00 0.00 0.00 54 1014.6
20260506190250 55 58 0.0 2.0 0.00 0.00 0.00 54 1014.4
20260506185749 55 63 2.0 4.0 0.00 0.00 0.00 54 1014.4
20260506185249 55 49 2.0 4.0 0.00 0.00 0.00 54 1014.4
20260506184648 55 61 1.0 2.0 0.00 0.00 0.00 54 1014.2
20260506183818 55 57 2.0 5.0 0.00 0.00 0.00 54 1014.3
20260506183332 55 88 2.0 4.0 0.00 0.00 0.00 54 1014.4
20260506182317 56 85 2.0 3.0 0.00 0.00 0.00 55 1014.3
20260506181822 55 71 1.0 2.0 0.00 0.00 0.00 56 1014.2
20260506180706 55 36 0.0 1.0 0.00 0.00 0.00 56 1014.1